#timestamp,LO_Frequency,Hit 
1501801215.5,286047007.1,N
1501801235.4,286047007.5,N
1501801255.2,286047005.8,N
1501801275.0,286047005.5,N
1501801275.9,286047005.5,N
1501801295.8,286047005.7,N
1501801315.6,286047007.2,N
1501801335.4,286047006.3,N
1501801355.3,286047010.3,P
1501801375.1,286047005.3,N
1501801376.0,286047005.3,N
1501801395.8,286047005.3,N
1501801415.7,286047005.7,N
1501801435.5,286047003.6,N
1501801455.3,286047003.7,N
1501801475.2,286047007.2,P
1501801495.9,286046998.1,N
1501801515.7,286046999.4,N
1501801535.6,286047001.2,N
1501801555.4,286047000.2,N
1501801575.3,286046998.8,N
1501801595.1,286046998.9,N
1501801596.0,286046998.9,N
1501801615.8,286046996.6,N
1501801635.7,286046999.1,N
1501801655.5,286046999.6,N
1501801675.3,286046999.6,N
1501801695.2,286046997.0,N
1501801715.9,286046998.0,N
1501801735.7,286046996.2,N
1501801755.5,286046996.1,N
1501801775.4,286046994.1,N
1501801795.2,286046993.4,N
1501801815.0,286046994.3,N
1501801815.9,286046994.3,N
1501801835.8,286046992.6,N
1501801855.6,286046993.8,N
1501801875.4,286046993.4,N
1501801895.3,286046991.7,N
1501801915.1,286046996.1,N
1501801916.0,286046996.1,N
1501801935.8,286046996.2,N
1501801955.7,286046994.0,N
1501801975.5,286046992.4,N
1501801995.3,286046993.8,N
1501802015.2,286046994.2,N
1501802035.9,286046994.0,N
1501802055.7,286046993.4,N
1501802075.6,286046997.0,N
1501802095.4,286046995.2,N
1501802115.2,286046998.8,N
1501802135.0,286047001.7,N
1501802136.0,286047001.7,N
1501802155.8,286047002.4,N
1501802175.6,286047000.8,N
1501802195.4,286046997.5,N
1501802215.3,286046997.8,N
1501802235.1,286046995.4,N
1501802255.8,286046994.2,N
1501802275.7,286046995.6,N
1501802295.5,286046995.3,N
1501802315.3,286046997.8,N
1501802335.2,286046995.0,N
1501802355.9,286046996.5,N
1501802375.7,286046999.4,N
1501802395.6,286046997.4,N
1501802415.4,286046995.4,N
1501802435.2,286046996.4,N
1501802455.1,286046997.5,N
1501802456.0,286046997.5,N
1501802475.8,286046994.9,N
1501802495.6,286046997.9,N
1501802515.5,286046996.6,N
1501802535.3,286046996.9,N
1501802555.1,286047000.8,N
1501802575.9,286047002.4,N
1501802595.7,286047003.7,N
1501802615.5,286047005.5,N
1501802635.3,286047004.5,N
1501802655.2,286047012.3,P
1501802675.0,286047011.5,N
1501802675.9,286047011.5,N
1501802695.8,286047011.2,N
1501802715.6,286047016.7,P
1501802735.4,286047008.3,N
1501802755.3,286047012.0,P
1501802775.1,286047009.5,N
1501802795.8,286046999.4,P
1501802815.7,286046998.6,N
1501802835.5,286047000.8,N
1501802855.3,286047000.9,N
1501802875.2,286046999.9,N
1501802895.9,286047004.4,N
1501802915.7,286047004.1,N
1501802935.6,286047003.0,N
1501802955.4,286047007.3,N
1501802975.2,286047005.5,N
1501802995.1,286047004.7,N
1501802996.0,286047004.7,N
1501803015.8,286047007.1,N
1501803035.6,286047008.0,N
1501803055.4,286047007.3,N
1501803075.3,286047006.6,N
1501803095.1,286047008.7,N
1501803115.8,286047008.9,N
1501803135.7,286047009.3,N
1501803155.5,286047012.4,P
1501803175.4,286047009.2,N
1501803195.2,286047008.7,N
1501803215.0,286047009.2,P
1501803215.9,286047009.2,P
1501803235.8,286046997.2,P
1501803255.6,286046997.0,N
1501803275.4,286046998.7,N
1501803295.3,286046998.7,N
1501803315.1,286046996.6,N
1501803316.0,286046996.6,N
1501803335.8,286046998.0,N
1501803355.6,286046996.2,N
1501803375.5,286046993.3,N
1501803395.3,286046995.8,N
1501803415.1,286046995.0,N
1501803435.9,286046996.0,N
1501803455.7,286046993.5,N
1501803475.5,286046998.0,N
1501803495.4,286046998.0,N
1501803515.2,286046994.3,N
1501803535.0,286046992.7,N
1501803535.9,286046992.7,N
1501803555.8,286046992.2,N
1501803575.6,286046991.9,N
1501803595.4,286046992.0,N
1501803615.3,286046993.2,N
1501803635.1,286046994.7,N
1501803636.0,286046994.7,N
1501803655.8,286046990.7,N
1501803675.7,286046992.4,N
1501803695.5,286046991.8,N
1501803715.3,286046988.8,N
1501803735.2,286046989.8,N
1501803755.9,286046989.9,N
1501803775.7,286046988.4,P
1501803795.6,286046996.0,N
1501803815.4,286046995.4,N
1501803835.2,286046996.0,N
1501803855.1,286046997.8,N
1501803856.0,286046997.8,N
1501803875.8,286046995.0,N
1501803895.6,286046999.1,N
1501803915.4,286046995.8,N
1501803935.3,286046993.6,N
1501803955.1,286046996.0,N
1501803975.8,286046996.4,N
1501803995.7,286046993.3,N
1501804015.5,286046993.3,N
1501804035.3,286046994.0,N
1501804055.2,286046992.4,P
1501804075.0,286046996.8,N
1501804075.9,286046996.8,N
1501804095.7,286046996.5,N
1501804115.6,286046998.3,N
1501804135.4,286046996.6,N
1501804155.2,286046999.1,N
1501804175.1,286046998.7,N
1501804176.0,286046998.7,N
1501804195.8,286046999.2,N
1501804215.6,286046999.0,N
1501804235.5,286046997.1,N
1501804255.3,286046997.7,N
1501804275.1,286046996.9,N
1501804295.9,286046997.7,N
1501804315.7,286046997.6,N
1501804335.5,286046997.9,N
1501804355.4,286046996.1,N
1501804375.2,286046996.3,N
1501804395.0,286046995.1,P
1501804395.9,286046995.1,P
1501804415.8,286046998.9,N
1501804435.6,286046999.1,N
1501804455.4,286047001.1,N
1501804475.3,286046999.8,N
1501804495.1,286047001.0,N
1501804496.0,286047001.0,N
1501804515.8,286046999.4,N
1501804535.7,286046995.9,N
1501804555.5,286046993.4,N
1501804575.3,286046996.1,N
1501804595.1,286046992.6,N
1501804615.9,286046994.5,N
1501804635.7,286046996.1,N
1501804655.5,286046996.2,N
1501804675.4,286046994.5,N
1501804695.2,286046994.1,N
1501804715.0,286046990.8,P
1501804716.0,286046990.8,P
1501804735.8,286046995.4,N
1501804755.6,286046997.6,N
1501804775.4,286046996.0,N
1501804795.3,286046994.9,N
